◎P/1999 P1の軌道と予報位置です

 すでに,IAUC7231, IAUC7232に報じられているとおり,Rob McNaughtは,

8月3日にこの彗星の検出に成功しました.次の軌道は,Term A3まで考慮

したもので,すべての観測をフィットしています.

 なお,彗星は年末に,7等級まで明るくなります.



    P/1999 P1 = P/1994 P1-A (Machholz 2) 

Epoch 1999 Dec. 8.0 TT = JDT 2451520.5  

T 1999 Dec. 9.27508 TT                                  Nakano

q   0.7489059            (2000.0)            P               Q

n   0.18887225     Peri.  149.29906     +0.80307566     -0.56030471

a   3.0085503      Node   246.14320     +0.49171403     +0.81537277

e   0.7510742      Incl.   12.81166     +0.33658104     +0.14569105

P   5.22

From 206 observations 1994-1999, mean residual 0".94.  Nongravitational

   parameters A1 = -0.49 +/- 0.10, A2 = -0.5060 +/- 0.0475,

   A3 = +0.62 +/- 0.03.

Residuals in seconds of arc 

1994/                     940903 410  0.2+  0.6+    941005 046  0.9+  1.3-  

940813 897 (3.8-  3.5-)   940903 410  0.1-  0.5+    941005 557  0.5+  1.1-  

940813 897 (4.8-  1.5-)   940903 410  0.4-  0.5+    941005 046  0.1-  0.0   

940813 897 (3.2-  1.1+)   940903 871  1.9+  2.1-    941005 557  0.6+  1.1-  

940813 897 (1.1+  4.1-)   940903 360  0.8+  0.0     941007 046  0.6+  0.3-  

940814 657 (5.6-  2.1+)   940903 871  1.3+  0.3-    941007 046  0.6+  0.8-  

940814 897 (4.9-  1.6+)   940903 360  0.8+  0.0     941007 046  0.5+  0.6-  

940814 897 (2.9-  0.8-)   940903 871  0.6+  1.5-    941007 046  0.5+  0.4-  

940814 897 (3.5-  0.0 )   940904 557  0.3+  0.4+    941007 557  0.8+  0.5-  

940815 897 (3.5-  0.5-)   940904 557  0.2+  0.5+    941007 046  1.0+  0.7-  

940815 897  0.1-  0.7+    940904 557  0.4+  0.4+    941007 557  1.1+  0.5-  

940815 897 (3.6-  0.5-)   940904 557  0.3+  0.5+    941007 557  0.6+  0.4-  

940815 897 (2.8-  1.5+)   940904 816  0.1+  0.4-    941007 557  0.5+  0.5-  

940815 360  0.3-  0.2+    940904 816  0.4+  0.4-    941007 675 (2.5+  0.5+) 

940815 360  0.7-  0.3+    940904 816  0.1+  0.1+    941007 675 (2.6+  1.7-) 

940815 372  1.4-  0.0     940904 675 (0.5-  2.6-)   941010 675 (5.5+  1.3-) 

940815 046  0.7-  0.9+    940904 675 (2.5+  6.3-)   941010 675  0.5+  0.4-  

940815 046  0.9-  0.7-    940904 411  0.6-  0.3+    941010 397  1.8-  0.4+  

940815 046  0.8-  0.9-    940904 411  0.2+  0.5-    941010 397 (3.2+  0.2+) 

940815 557  0.9-  0.1+    940904 411  0.1+  0.1+    941010 397 (0.5-  2.2+) 

940815 557  0.1-  0.3+    940905 046  0.1+  0.2-    941011 557  0.5+  0.4-  

940815 557  0.2+  0.4+    940905 046  0.2-  0.2-    941011 557  0.7+  0.7-  

940815 557  0.3-  0.3+    940905 046  0.1-  0.2-    941012 046  0.0   0.1-  

940815 557  0.6-  0.3+    940905 557  0.6-  0.2-    941012 046 (5.2-  0.3+) 

940816 046  0.9-  0.6-    940905 557  0.6-  0.5-    941012 046  0.7+  0.6+  

940816 046  0.1+  0.8-    940905 557  0.0   0.6-    941012 046  0.1-  0.6-  

940816 046  1.1+  1.2-    940905 540  1.1-  1.0-    941013 372  0.0   0.6-  

940816 557 (2.4-  0.1-)   940905 540  1.2-  0.3-    941013 372  1.5-  1.0-  

940816 557  0.1-  0.3+    940905 540  1.8-  0.1-    941014 897  1.8+  1.4+  

940816 557  0.8+  0.1-    940905 540 (2.4-  0.2+)   941014 410  0.7+  0.6+  

940816 557  1.5+  0.8-    940905 816  0.8+  0.3-    941014 410  1.9+  0.3-  

940816 557  0.8+  0.3-    940905 816  0.9+  0.2-    941014 410  0.6+  0.4+  

940816 104 (2.3+  0.1-)   940905 816  0.5+  0.4-    941014 360  1.2+  0.3+  

940816 104  1.6+  0.4+    940906 605  1.1-  2.0+    941014 360  1.1+  0.3+  

940816 104  1.8+  0.4+    940906 605 (2.3-  2.0+)   941015 046  0.5+  0.7+  

940816 104 (2.4+  0.2-)   940906 605 (0.2-  2.3+)   941015 046  0.8+  0.1+  

940816 104  0.8+  0.4+    940906 605  0.6-  1.0+    941015 046  1.2+  0.2+  

940816 104  2.1+  0.4+    940906 605  0.1-  1.4+    941016 540  0.2+  0.2+  

940817 421  1.6-  1.1-    940906 605  0.7-  1.6+    941016 540  0.8+  0.4-  

940817 360  0.9+  0.0     940906 675 (3.1+  4.7-)   941018 605 (3.7+  0.3+) 

940817 360  0.5+  0.0     940906 675 (2.4+  2.7-)   941018 605 (4.3+  1.2+) 

940818 372  0.0   0.7+    940908 046  1.4-  0.2+    941018 605 (3.1+  0.9+) 

940818 046  0.5+  0.8+    940908 557  1.1-  0.0     941018 605 (3.9+  0.6-) 

940818 046  0.3+  0.4+    940908 046  0.8-  0.0     941018 557  0.6+  1.0-  

940818 046  0.0   0.3+    940908 557  1.0-  0.1+    941018 557  1.7+  1.0-  

940818 046  0.2-  1.0+    940908 557  1.5-  0.4+    941018 557 (2.3+  0.9-) 

940819 605 (2.4-  2.3+)   940908 046  0.5-  0.2-    941019 605  0.4-  0.2-  

940820 046  1.2+  0.0     940908 540  1.0-  0.1-    941019 605  1.7+  0.7+  

940820 046  1.8+  0.7-    940908 540  1.8-  0.8-    941019 605  0.1+  0.3+  

940820 046  0.7+  0.1+    940908 540 (2.2-  0.3+)   941020 605 (3.1+  1.4+) 

940821 540  1.9-  0.7+    940908 360  0.5-  0.3-    941020 605 (7.7-  3.0+) 

940821 540  1.6-  0.5+    940908 360  0.4-  0.3-    941020 605 (4.3+  0.0 ) 

940821 540  0.7-  0.1-    940908 372 (0.8-  2.4+)   941022 897 (1.1+  2.2-) 

940821 046  0.3+  0.3-    940908 372 (3.0-  2.9+)   941022 897 (2.2+  1.7-) 

940821 046  0.1-  0.1-    940909 410 (2.5-  1.0+)   941022 897 (3.7+  2.7-) 

940821 046  0.6+  0.2-    940909 410 (2.4-  0.6+)   941031 360 (2.0+  2.4-) 

940822 046  0.8+  0.6-    940909 402 (2.2-  3.0+)   941031 360 (3.3+  2.8-) 

940822 046  0.8+  0.6-    940910 557  0.4-  0.0     941101 897 (2.8+  1.8-) 

940822 046  0.8+  0.3-    940910 557  0.8-  0.3+    941101 897  0.4+  2.0-  

940823 557  0.2+  0.1+    940910 557  0.2+  0.1+    941101 897 (2.4+  3.5-) 

940823 557  0.0   0.1+    940910 693  1.0-  0.6+    941102 557  1.3+  1.3-  

940823 557  0.0   0.1+    940910 693  0.8-  0.3+    941102 557  1.7+  0.8-  

940823 557  0.1-  0.1+    940910 693  1.3-  0.5-    941102 557  2.1+  2.1-  

940823 046  0.5-  0.6+    940910 693  0.5-  0.2+    941102 557 (3.6+  2.5-) 

940823 046  0.3-  0.4+    940911 372  0.3+  2.1+    941107 372 (2.2+  4.4-)Y

940823 046  0.6-  0.7+    940911 372  0.6+  0.2+    941109 691 (3.7+  3.0-) 

940824 046  1.1-  0.3+    940911 372  0.1+  1.6+    941109 691  2.0+  1.4-  

940825 605  0.4+  1.3+    940912 292  0.0   1.5+    941110 691  0.9+  2.1-  

940825 605 (0.1-  2.7+)   940912 292  0.0   1.7+    941110 691  0.7+  1.7-  

940825 605 (1.2-  3.6+)   940913 360  0.4-  0.7-    941110 691  2.0+  2.1-  

940827 540 (2.3-  0.1-)   940913 360  0.3-  0.6-    941201 557 (3.6+  3.2-) 

940827 540  1.9-  2.0+    940913 372  1.4-  1.5+    941201 557 (5.0+  3.9-) 

940828 372  0.9+  0.8-    940916 372  0.1+  0.5+    941208 691  1.8+  1.7-  

940828 372  1.4+  0.7-    940916 372  1.8-  0.7+    941208 691  0.5+  1.8-  

940828 372  0.7-  1.9+    940923 557  0.7-  0.8-    941208 691  0.3+  0.3+  

940830 557  0.1+  0.9-    940923 557  0.8-  0.8-    1995/                   

940830 557  0.0   1.2-    940923 557  0.2-  0.8-    950329 413  1.0-  0.3+  

940830 557  0.2+  0.9-    940924 372 (1.6-  3.0+)   950329 413  1.4-  0.9+  

940901 411  1.0-  0.3-    940925 372 (2.8-  1.8+)   950330 413  1.3-  1.0+  

940901 411  0.4-  0.2+    940927 657  1.3-  0.5+    950330 413  1.2-  1.1+  

940901 411  0.8-  0.4-    940927 657  1.1-  0.0     1999/                   

940901 360  0.5+  0.5-    940927 657  0.9-  0.3-    990803 413  0.5+  0.3-  

940901 360  0.7+  0.5-    940930 046  0.7-  0.0     990803 413  0.7+  0.7-  

940901 372  1.4+  0.1-    940930 046  0.3-  0.2-    990803 413  0.0   0.2-  

940902 557  0.7-  0.1+    940930 046  0.1-  0.7-    990804 413  0.1+  0.5-  

940902 557  0.6-  0.1+    941002 360  0.2-  0.3+    990804 413  0.2+  0.5-  

940902 557  0.0   0.0     941002 360  0.1-  0.1+    990804 413  0.3+  0.6-  

940902 816  0.3+  0.2-    941002 372  1.0+  0.3+    990804 413  0.2+  0.5-  

940902 816  0.1+  0.3-    941005 557  0.4+  1.0-    

940902 816  0.2+  0.1-    941005 046  0.6+  1.2-    

 

Date/  0h TT  R.A.(2000) Decl.     Delta   r     Daily motion  Mag.  Moon Age

                h  m       。  ,                      ,  / PA 。  m1      。

1999 July 31  16 52.54  -11 22.2   1.226  1.990    13.2 / 283  21.4   85  .93

     Aug.  5  16 48.15  -11 07.5   1.230  1.939    10.1 / 283  21.1  153  .47

          10  16 44.79  -10 56.2   1.237  1.888     6.9 / 283  20.7  133  .03

          15  16 42.49  -10 48.4   1.244  1.836     3.7 / 284  20.4   65  .14

          20  16 41.28  -10 43.7   1.253  1.784      .6 / 306  20.0    7  .59

          25  16 41.12  -10 42.0   1.261  1.731     2.6 /  94  19.7   58  .96

          30  16 41.99  -10 42.8   1.268  1.677     5.6 /  96  19.3  124  .89

     Sept. 4  16 43.88  -10 46.0   1.273  1.623     8.5 /  97  18.8  164  .38

           9  16 46.75  -10 50.9   1.277  1.568    11.4 /  97  18.4   97  .01

          14  16 50.59  -10 57.4   1.278  1.513    14.2 /  96  17.9   34  .17

          19  16 55.37  -11 05.0   1.276  1.457    16.8 /  96  17.4   26  .61

          24  17 01.06  -11 13.1   1.271  1.401    19.5 /  95  16.9   87  .97

          29  17 07.65  -11 21.5   1.261  1.345    22.0 /  94  16.4  156  .84

     Oct.  4  17 15.13  -11 29.6   1.248  1.288    24.7 /  94  15.8  134  .30

           9  17 23.50  -11 37.2   1.231  1.232    27.3 /  93  15.2   71  .00

          14  17 32.76  -11 43.8   1.209  1.176    29.9 /  92  14.5   14  .18

          19  17 42.93  -11 49.0   1.182  1.121    32.5 /  92  13.8   46  .63

          24  17 54.01  -11 52.5   1.150  1.066    35.2 /  91  13.1  110  .99

          29  18 06.01  -11 53.9   1.114  1.013    38.0 /  90  12.4  171  .77

     Nov.  3  18 18.96  -11 53.2   1.073  0.963    40.9 /  90  11.7  113  .24

           8  18 32.89  -11 50.4   1.026  0.915    43.9 /  89  10.9   55  .00

          13  18 47.82  -11 45.5   0.975  0.871    46.9 /  89  10.1    9  .20

          18  19 03.78  -11 39.3   0.919  0.832    50.1 /  89   9.4   60  .66

          23  19 20.81  -11 32.7   0.859  0.799    53.4 /  89   8.7  126 1.00

          28  19 38.99  -11 27.3   0.796  0.774    57.3 /  90   8.2  161  .71

     Dec.  3  19 58.46  -11 25.2   0.731  0.757    61.8 /  91   7.7  102  .21

           8  20 19.49  -11 28.9   0.664  0.749    67.7 /  93   7.4   48  .00

          13  20 42.52  -11 41.0   0.599  0.752    75.7 /  94   7.2    9  .21

          18  21 08.24  -12 03.7   0.535  0.764    86.6 /  95   7.1   65  .71

          23  21 37.68  -12 37.8   0.475  0.785   101.3 /  96   7.2  132 1.00

          28  22 12.22  -13 21.4   0.421  0.814   120.2 /  96   7.4  163  .66

2000 Jan.  2  22 53.37  -14 07.4   0.376  0.850   141.7 /  94   7.8  110  .19

           7  23 42.09  -14 41.0   0.342  0.892   160.9 /  92   8.2   62  .00

          12  00 37.54  -14 41.2   0.323  0.938   170.2 /  89   8.7   18  .24

          17  01 36.00  -13 51.9   0.319  0.987   164.8 /  85   9.4   43  .76

          22  02 32.03  -12 15.2   0.333  1.039   147.2 /  82  10.1  100  .99

          27  03 21.35  -10 11.1   0.362  1.093   124.7 /  79  10.9  148  .63

NAKANO

         **** Don't distribute anyone except personal use only ****

                (C) Copyright 1999 OAA/ComputingSection

write mail from CFAD0::NAKANO on 1999-08-18 04:05:25(JST).

 

戻ります。